Weather History for Orlando International, FL

Change the Weather History Date:

Friday, July 26, 2013

  Actual Average Record
Temperature  
Mean Temperature 85 °F 83 °F  
Max Temperature 94 °F 92 °F 98 °F (1936)
Min Temperature 76 °F 74 °F 66 °F (1893)
Degree Days  
Heating Degree Days 0 0  
Month to date heating degree days 0 0  
Since 1 June heating degree days 0 0  
Since 1 July heating degree days 0 0  
Cooling Degree Days 20 18  
Month to date cooling degree days 438 460  
Year to date cooling degree days 1819 1751  
Since 1 June cooling degree days 947 950  
Growing Degree Days 34 (Base 50)    
Moisture  
Dew Point 75 °F    
Average Humidity 76    
Maximum Humidity 100    
Minimum Humidity 52    
Precipitation  
Precipitation 0.26 in 0.25 in 2.63 in (1954)
Month to date precipitation 7.28 6.08  
Year to date precipitation 28.25 28.29  
Sea Level Pressure  
Sea Level Pressure 29.99 in    
Wind  
Wind Speed 4 mph (WNW)    
Max Wind Speed 23 mph    
Max Gust Speed 36 mph    
Visibility 9 miles    
Events Rain , Thunderstorm    
T = Trace of Precipitation, MM = Missing Value Source: NWS Daily Summary

Daily Weather History Graph

Daily Weather History Graph

Search for Another Location

Airport:

Trip Planner

Search our weather history database for the weather conditions in past years. The results will help you decide how hot, cold, wet, or windy it might be!

Date:

Astronomy

Jul. 26, 2013 Rise Set
Actual Time 6:43 AM EDT 8:19 PM EDT
Civil Twilight 6:18 AM EDT 8:45 PM EDT
Nautical Twilight 5:47 AM EDT 9:15 PM EDT
Astronomical Twilight 5:14 AM EDT 9:48 PM EDT
Moon 11:03 PM EDT (7/26) 10:50 AM EDT (7/26)
Length of Visible Light 14h 27m
Length of Day
13h 35m
Waning Gibbous, 80% of the Moon is Illuminated
Jul 26
Waning Gibbous
Jul 29
Last Quarter
Aug 6
New
Aug 14
First Quarter
Aug 20
Full

Hourly Weather History & Observations

Time (EDT) Temp. Heat Index Dew Point Humidity Pressure Visibility Wind Dir Wind Speed Gust Speed Precip Events Conditions
12:53 AM 78.1 °F - 75.9 °F 93% 30.00 in 2.0 mi WNW 3.5 mph - 0.05 in Rain Heavy Rain
1:01 AM 77.0 °F - 75.2 °F 94% 30.00 in 3.0 mi WNW 3.5 mph - 0.03 in Rain Light Rain
1:53 AM 78.1 °F - 75.9 °F 93% 29.98 in 10.0 mi WSW 4.6 mph - 0.08 in   Mostly Cloudy
1:59 AM 78.8 °F - 75.2 °F 89% 29.98 in 10.0 mi West 5.8 mph - N/A   Mostly Cloudy
2:53 AM 77.0 °F - 75.9 °F 96% 29.96 in 9.0 mi Calm Calm - N/A   Scattered Clouds
3:17 AM 75.2 °F - 75.2 °F 100% 29.97 in 8.0 mi SW 6.9 mph - N/A   Mostly Cloudy
3:53 AM 75.9 °F - 75.0 °F 97% 29.96 in 8.0 mi Calm Calm - N/A   Mostly Cloudy
4:53 AM 75.9 °F - 75.0 °F 97% 29.96 in 8.0 mi WNW 3.5 mph - N/A   Mostly Cloudy
5:07 AM 75.2 °F - 75.2 °F 100% 29.98 in 8.0 mi WSW 3.5 mph - N/A   Mostly Cloudy
5:42 AM 75.2 °F - 75.2 °F 100% 29.98 in 9.0 mi Calm Calm - N/A   Mostly Cloudy
5:53 AM 75.9 °F - 75.0 °F 97% 29.98 in 9.0 mi WNW 4.6 mph - N/A   Mostly Cloudy
6:30 AM 75.2 °F - 75.2 °F 100% 29.99 in 9.0 mi Calm Calm - N/A   Mostly Cloudy
6:45 AM 75.2 °F - 75.2 °F 100% 29.99 in 9.0 mi Calm Calm - N/A   Mostly Cloudy
6:53 AM 75.9 °F - 75.0 °F 97% 29.99 in 8.0 mi Calm Calm - N/A   Mostly Cloudy
7:53 AM 77.0 °F - 75.9 °F 96% 30.01 in 9.0 mi West 3.5 mph - N/A   Mostly Cloudy
8:37 AM 78.8 °F - 75.2 °F 89% 30.02 in 10.0 mi West 3.5 mph - N/A   Mostly Cloudy
8:53 AM 79.0 °F - 75.9 °F 90% 30.01 in 10.0 mi West 3.5 mph - N/A   Mostly Cloudy
9:53 AM 81.0 °F 87.3 °F 75.9 °F 85% 30.01 in 10.0 mi NNW 5.8 mph - N/A   Mostly Cloudy
10:13 AM 82.4 °F 89.5 °F 75.2 °F 79% 30.01 in 10.0 mi NNW 4.6 mph - N/A   Scattered Clouds
10:53 AM 84.9 °F 93.3 °F 75.0 °F 72% 30.01 in 10.0 mi Calm Calm - N/A   Scattered Clouds
11:53 AM 87.1 °F 95.4 °F 73.9 °F 65% 30.02 in 10.0 mi North 4.6 mph - N/A   Scattered Clouds
12:53 PM 88.0 °F 97.5 °F 75.0 °F 65% 30.01 in 10.0 mi West 5.8 mph - N/A   Scattered Clouds
1:53 PM 90.0 °F 97.9 °F 73.0 °F 57% 29.99 in 10.0 mi NNW 5.8 mph - N/A   Scattered Clouds
2:53 PM 91.9 °F 99.5 °F 72.0 °F 52% 29.97 in 10.0 mi WNW 6.9 mph - N/A   Scattered Clouds
3:53 PM 93.0 °F 101.9 °F 73.0 °F 52% 29.96 in 10.0 mi NNW 8.1 mph - N/A   Mostly Cloudy
4:53 PM 90.0 °F 97.9 °F 73.0 °F 57% 29.96 in 10.0 mi NE 9.2 mph - 0.00 in Rain Light Rain
5:47 PM 82.4 °F 88.2 °F 73.4 °F 74% 29.97 in 10.0 mi West 9.2 mph 19.6 mph 0.00 in Rain , Thunderstorm Light Thunderstorms and Rain
5:53 PM 79.0 °F - 73.0 °F 82% 29.97 in 8.0 mi West 17.3 mph 35.7 mph 0.00 in Rain , Thunderstorm Light Thunderstorms and Rain
6:53 PM 79.0 °F - 75.0 °F 88% 29.98 in 8.0 mi West 4.6 mph - 0.18 in Rain , Thunderstorm Light Thunderstorms and Rain
7:16 PM 80.6 °F 86.2 °F 75.2 °F 84% 29.97 in 6.0 mi Calm Calm - 0.03 in Rain Light Rain
7:53 PM 79.0 °F - 77.0 °F 94% 29.98 in 10.0 mi Calm Calm - 0.03 in   Mostly Cloudy
8:53 PM 80.1 °F 86.4 °F 78.1 °F 94% 30.00 in 10.0 mi Calm Calm - N/A   Mostly Cloudy
9:53 PM 80.1 °F 85.4 °F 75.9 °F 87% 30.01 in 10.0 mi ESE 4.6 mph - N/A   Mostly Cloudy
10:53 PM 80.1 °F 85.8 °F 77.0 °F 90% 30.01 in 10.0 mi Calm Calm - N/A   Scattered Clouds
11:53 PM 78.1 °F - 75.9 °F 93% 30.01 in 10.0 mi Calm Calm - N/A   Scattered Clouds